Вернуться в каталог

COSMOS 1275 DEB

LostPO
NORAD 42139·DEBRIS·🇷🇺 Russia

Запущен Jun 4, 1981 с Plesetsk Cosmodrome

Loading…

Ближайшие Пролёты (ближайшие 24 часа)

TLE

УстаревшееSource: Space-Track

Эпоха: Sep 21, 2024, 12:47 UTC

1 42139U 81053RB  24265.53264535  .00002484  00000-0  18584-2 0  9994
2 42139  83.0047 353.2947 0047719   7.9249 352.2660 13.93746586501917

Отслеживайте COSMOS 1275 DEB в реальном времени с AllMySat

Download on the App Store